This is the latest recevied weather packets stored in our database for station/object WA9SDJ-13. If no packets are shown the sender has not sent any weather packets the latest 10 day(s).
| Time | Temp. | Humidity | Pressure | Rain* | Wind** | Luminosity | Snow |
|---|---|---|---|---|---|---|---|
| 1778350122 | 21.11° C | 74% | 1007.1 hPa | 0 mm | - | 948 W/m² | - |
| 1778350062 | 21.11° C | 73% | 1007.1 hPa | 0 mm | - | 951 W/m² | - |
| 1778350002 | 21.11° C | 73% | 1007.2 hPa | 0 mm | - | 949 W/m² | - |
| 1778349942 | 20.56° C | 72% | 1007.2 hPa | 0 mm | - | 948 W/m² | - |
| 1778349879 | 20.56° C | 72% | 1007.1 hPa | 0 mm | - | 949 W/m² | - |
| 1778349818 | 20.56° C | 72% | 1007.2 hPa | 0 mm | - | 951 W/m² | - |
| 1778349757 | 21.11° C | 74% | 1007.2 hPa | 0 mm | - | 950 W/m² | - |
| 1778349695 | 20.56° C | 74% | 1007.1 hPa | 0 mm | - | 953 W/m² | - |
| 1778349634 | 20.56° C | 74% | 1007.2 hPa | 0 mm | - | 953 W/m² | - |
| 1778349572 | 20.56° C | 73% | 1007.1 hPa | 0 mm | - | 950 W/m² | - |
| 1778349511 | 20.56° C | 76% | 1007.1 hPa | 0 mm | - | 951 W/m² | - |
| 1778349451 | 20.56° C | 75% | 1007.1 hPa | 0 mm | - | 953 W/m² | - |
| 1778349391 | 20.56° C | 73% | 1007.1 hPa | 0 mm | - | 953 W/m² | - |
| 1778349331 | 20.56° C | 73% | 1007.2 hPa | 0 mm | - | 953 W/m² | - |
| 1778349270 | 20.56° C | 75% | 1007.3 hPa | 0 mm | - | 953 W/m² | - |
| 1778349211 | 20.56° C | 74% | 1007.3 hPa | 0 mm | - | 955 W/m² | - |
| 1778349149 | 20.56° C | 76% | 1007.2 hPa | 0 mm | - | 953 W/m² | - |
| 1778349086 | 20.56° C | 74% | 1007.2 hPa | 0 mm | - | 951 W/m² | - |
| 1778349023 | 20.56° C | 77% | 1007.2 hPa | 0 mm | - | 949 W/m² | - |
| 1778348962 | 20.56° C | 75% | 1007.2 hPa | 0 mm | - | 953 W/m² | - |
| 1778348901 | 20.56° C | 76% | 1007.3 hPa | 0 mm | - | 951 W/m² | - |
| 1778348839 | 20.56° C | 75% | 1007.3 hPa | 0 mm | - | 953 W/m² | - |
| 1778348778 | 20.56° C | 75% | 1007.3 hPa | 0 mm | - | 955 W/m² | - |
| 1778348717 | 20.56° C | 75% | 1007.3 hPa | 0 mm | - | 955 W/m² | - |
| 1778348655 | 20.56° C | 74% | 1007.3 hPa | 0 mm | - | 951 W/m² | - |
* Rain latest hour (hover to see other rain measurements)
** Current wind speed in m/s (hover to see current wind gust speed)